HST 1 20580U 90037B 25104.69544608 .00009467 00000-0 36641-3 0 9997 2 20580 28.4667 115.0392 0002273 115.3361 244.7469 15.24435175722986 ISS (ZARYA) 1 25544U 98067A 25104.93771177 .00013802 00000-0 25327-3 0 9990 2 25544 51.6362 260.3059 0005231 40.9775 319.1606 15.49550269505353 CXO 1 25867U 99040B 25105.96914894 .00000895 00000-0 00000+0 0 9994 2 25867 48.1030 132.8028 8515445 308.4124 0.0837 0.37808205 26867